TimeCEST,TemperatureF,Dew PointF,Humidity,Sea Level PressureIn,VisibilityMPH,Wind Direction,Wind SpeedMPH,Gust SpeedMPH,PrecipitationIn,Events,Conditions,WindDirDegrees,DateUTC
12:25 AM,50.0,44.6,82,29.92,6.2,South,8.1,-,N/A,,Overcast,190,2012-10-04 22:25:00
12:55 AM,50.0,44.6,82,29.92,6.2,South,8.1,-,N/A,,Overcast,180,2012-10-04 22:55:00
1:25 AM,48.2,44.6,87,29.92,6.2,South,8.1,-,N/A,,Mostly Cloudy,180,2012-10-04 23:25:00
1:55 AM,48.2,46.4,93,29.89,6.2,South,8.1,-,N/A,,Overcast,170,2012-10-04 23:55:00
2:00 AM,49,46,83,29.91,22,South,8.9,,,,Partly Cloudy,180,2012-10-05 00:00:00
2:25 AM,50.0,46.4,87,29.89,6.2,South,9.2,-,N/A,,Overcast,180,2012-10-05 00:25:00
2:55 AM,50.0,46.4,87,29.89,6.2,South,8.1,-,N/A,,Overcast,170,2012-10-05 00:55:00
3:25 AM,50.0,46.4,87,29.86,6.2,South,8.1,-,N/A,,Overcast,170,2012-10-05 01:25:00
3:55 AM,50.0,46.4,87,29.83,6.2,South,8.1,-,N/A,,Overcast,170,2012-10-05 01:55:00
4:25 AM,51.8,46.4,82,29.83,6.2,South,8.1,-,N/A,,Overcast,170,2012-10-05 02:25:00
4:37 AM,51.8,48.2,88,29.80,4.3,South,8.1,-,N/A,Rain,Light Rain,180,2012-10-05 02:37:00
4:43 AM,51.8,48.2,88,29.80,6.2,South,8.1,-,N/A,Rain,Rain Showers,180,2012-10-05 02:43:00
4:55 AM,51.8,48.2,88,29.80,6.2,South,8.1,-,N/A,Rain,Light Rain Showers,180,2012-10-05 02:55:00
4:58 AM,51.8,48.2,88,29.80,4.3,South,8.1,-,N/A,Rain,Rain Showers,180,2012-10-05 02:58:00
5:00 AM,51,49,88,29.82,7,South,6.7,,,Rain,Rain Showers,180,2012-10-05 03:00:00
5:01 AM,51.8,48.2,88,29.80,6.2,South,8.1,-,N/A,Rain,Rain Showers,180,2012-10-05 03:01:00
5:04 AM,51.8,48.2,88,29.80,6.2,South,8.1,-,N/A,Rain,Rain Showers,180,2012-10-05 03:04:00
5:25 AM,51.8,50.0,94,29.80,6.2,South,6.9,-,N/A,Rain,Rain Showers,180,2012-10-05 03:25:00
5:39 AM,51.8,50.0,94,29.80,6.2,South,8.1,-,N/A,Rain,Light Rain,180,2012-10-05 03:39:00
5:55 AM,51.8,50.0,94,29.77,6.2,South,9.2,-,N/A,Rain,Light Rain,170,2012-10-05 03:55:00
6:25 AM,51.8,51.8,100,29.74,6.2,South,10.4,-,N/A,Rain,Light Rain,170,2012-10-05 04:25:00
6:27 AM,51.8,51.8,100,29.74,6.2,South,10.4,-,N/A,Rain,Light Rain,170,2012-10-05 04:27:00
6:51 AM,53.6,51.8,94,29.74,6.2,South,11.5,-,N/A,Rain,Light Rain,190,2012-10-05 04:51:00
6:55 AM,53.6,51.8,94,29.74,6.2,South,10.4,-,N/A,Rain,Light Rain Showers,190,2012-10-05 04:55:00
6:58 AM,53.6,51.8,94,29.71,6.2,South,10.4,-,N/A,Rain,Light Rain Showers,190,2012-10-05 04:58:00
7:04 AM,53.6,51.8,94,29.71,6.2,South,10.4,-,N/A,Rain,Light Rain,190,2012-10-05 05:04:00
7:25 AM,53.6,51.8,94,29.71,6.2,South,13.8,-,N/A,Rain,Light Rain,180,2012-10-05 05:25:00
7:55 AM,55.4,53.6,94,29.68,6.2,South,13.8,-,N/A,Rain,Light Rain,190,2012-10-05 05:55:00
8:00 AM,55,54,93,29.69,12,South,15.7,,,Rain,Heavy Rain,190,2012-10-05 06:00:00
8:25 AM,55.4,53.6,94,29.65,6.2,South,18.4,-,N/A,Rain,Drizzle,190,2012-10-05 06:25:00
8:55 AM,57.2,55.4,94,29.65,6.2,SSW,19.6,-,N/A,,Mostly Cloudy,200,2012-10-05 06:55:00
9:09 AM,57.2,55.4,94,29.65,6.2,SSW,21.9,-,N/A,,Mostly Cloudy,200,2012-10-05 07:09:00
9:25 AM,59.0,55.4,88,29.65,6.2,SSW,21.9,-,N/A,,Mostly Cloudy,210,2012-10-05 07:25:00
9:43 AM,59.0,55.4,88,29.65,6.2,SSW,23.0,34.5,N/A,,Overcast,210,2012-10-05 07:43:00
9:55 AM,59.0,57.2,94,29.65,6.2,SW,23.0,35.7,N/A,,Overcast,220,2012-10-05 07:55:00
10:10 AM,59.0,57.2,94,29.65,6.2,SSW,23.0,-,N/A,,Mostly Cloudy,210,2012-10-05 08:10:00
10:25 AM,60.8,57.2,88,29.65,6.2,SSW,21.9,-,N/A,,Overcast,210,2012-10-05 08:25:00
10:55 AM,60.8,57.2,88,29.65,6.2,SW,21.9,-,N/A,,Overcast,220,2012-10-05 08:55:00
11:00 AM,62,57,79,29.67,28,SW,24.6,,,,Partly Cloudy,220,2012-10-05 09:00:00
11:25 AM,62.6,57.2,82,29.65,6.2,SW,26.5,-,N/A,,Overcast,220,2012-10-05 09:25:00
11:33 AM,62.6,57.2,82,29.65,6.2,SW,26.5,42.6,N/A,,Overcast,220,2012-10-05 09:33:00
11:55 AM,62.6,57.2,82,29.65,6.2,SW,25.3,-,N/A,,Overcast,230,2012-10-05 09:55:00
12:25 PM,64.4,57.2,77,29.68,6.2,SW,25.3,36.8,N/A,,Overcast,230,2012-10-05 10:25:00
12:33 PM,62.6,57.2,82,29.68,6.2,SW,23.0,34.5,N/A,,Overcast,230,2012-10-05 10:33:00
12:39 PM,62.6,59.0,88,29.68,3.7,SW,25.3,-,N/A,,Overcast,230,2012-10-05 10:39:00
12:45 PM,62.6,59.0,88,29.68,3.1,SW,25.3,-,N/A,Rain,Light Rain Showers,230,2012-10-05 10:45:00
12:46 PM,62.6,59.0,88,29.68,1.9,SW,25.3,-,N/A,Rain,Rain Showers,230,2012-10-05 10:46:00
12:55 PM,60.8,57.2,88,29.71,3.1,WSW,23.0,36.8,N/A,Rain,Rain,250,2012-10-05 10:55:00
12:58 PM,57.2,53.6,88,29.71,5.0,West,21.9,36.8,N/A,,Mostly Cloudy,270,2012-10-05 10:58:00
1:05 PM,57.2,55.4,94,29.74,5.6,West,19.6,31.1,N/A,,Mostly Cloudy,260,2012-10-05 11:05:00
1:11 PM,59.0,55.4,88,29.74,6.2,West,18.4,-,N/A,,Overcast,260,2012-10-05 11:11:00
1:25 PM,59.0,55.4,88,29.74,6.2,West,17.3,-,N/A,,Overcast,260,2012-10-05 11:25:00
1:35 PM,59.0,53.6,82,29.74,6.2,West,16.1,-,N/A,,Overcast,260,2012-10-05 11:35:00
1:37 PM,57.2,53.6,88,29.74,4.3,West,16.1,-,N/A,,Overcast,260,2012-10-05 11:37:00
1:55 PM,57.2,53.6,88,29.74,3.7,West,16.1,-,N/A,,Overcast,260,2012-10-05 11:55:00
1:58 PM,57.2,53.6,88,29.74,6.2,West,16.1,-,N/A,,Overcast,260,2012-10-05 11:58:00
2:00 PM,57,54,84,29.77,6,West,15.7,,,Rain,Rain,260,2012-10-05 12:00:00
2:12 PM,57.2,53.6,88,29.74,6.2,West,13.8,-,N/A,,Overcast,260,2012-10-05 12:12:00
2:25 PM,57.2,53.6,88,29.77,3.1,West,15.0,-,N/A,Rain,Rain,260,2012-10-05 12:25:00
2:37 PM,55.4,53.6,94,29.77,5.6,WSW,16.1,-,N/A,,Overcast,250,2012-10-05 12:37:00
2:55 PM,57.2,53.6,88,29.77,6.2,WSW,15.0,-,N/A,,Mostly Cloudy,240,2012-10-05 12:55:00
3:06 PM,57.2,53.6,88,29.77,6.2,WSW,12.7,-,N/A,,Overcast,250,2012-10-05 13:06:00
3:25 PM,57.2,55.4,94,29.77,6.2,WSW,11.5,-,N/A,,Overcast,250,2012-10-05 13:25:00
3:40 PM,57.2,53.6,88,29.77,6.2,WSW,11.5,-,N/A,,Mostly Cloudy,250,2012-10-05 13:40:00
3:55 PM,59.0,53.6,82,29.80,6.2,WSW,11.5,-,N/A,,Mostly Cloudy,250,2012-10-05 13:55:00
4:25 PM,59.0,53.6,82,29.80,6.2,WSW,10.4,-,N/A,,Overcast,250,2012-10-05 14:25:00
4:55 PM,59.0,53.6,82,29.80,6.2,WSW,10.4,-,N/A,,Overcast,250,2012-10-05 14:55:00
5:00 PM,59,54,79,29.82,28,WSW,8.9,,,,Partly Cloudy,250,2012-10-05 15:00:00
5:25 PM,59.0,55.4,88,29.80,6.2,WSW,10.4,-,N/A,,Overcast,240,2012-10-05 15:25:00
5:55 PM,59.0,55.4,88,29.80,6.2,SW,10.4,-,N/A,,Mostly Cloudy,230,2012-10-05 15:55:00
6:25 PM,57.2,55.4,94,29.83,6.2,WSW,8.1,-,N/A,,Mostly Cloudy,240,2012-10-05 16:25:00
6:34 PM,57.2,55.4,94,29.83,6.2,WSW,9.2,-,N/A,,Overcast,240,2012-10-05 16:34:00
6:38 PM,57.2,55.4,94,29.83,6.2,WSW,8.1,-,N/A,,Overcast,250,2012-10-05 16:38:00
6:39 PM,57.2,55.4,94,29.83,6.2,West,5.8,-,N/A,,Overcast,260,2012-10-05 16:39:00
6:55 PM,57.2,53.6,88,29.83,6.2,West,4.6,-,N/A,,Mostly Cloudy,260,2012-10-05 16:55:00
6:56 PM,57.2,53.6,88,29.83,6.2,WSW,5.8,-,N/A,,Overcast,240,2012-10-05 16:56:00
7:25 PM,57.2,53.6,88,29.83,6.2,SW,5.8,-,N/A,,Overcast,230,2012-10-05 17:25:00
7:55 PM,57.2,55.4,94,29.83,6.2,SW,5.8,-,N/A,,Overcast,230,2012-10-05 17:55:00
8:00 PM,57,54,88,29.86,19,SW,6.7,,,,Partly Cloudy,220,2012-10-05 18:00:00
8:25 PM,57.2,53.6,88,29.86,6.2,SSW,4.6,-,N/A,,Overcast,210,2012-10-05 18:25:00
8:37 PM,55.4,53.6,94,29.86,4.3,SSW,3.5,-,N/A,Rain,Light Rain,210,2012-10-05 18:37:00
8:40 PM,55.4,53.6,94,29.86,4.3,SSW,3.5,-,N/A,Rain,Light Rain,210,2012-10-05 18:40:00
8:48 PM,55.4,53.6,94,29.86,4.3,SW,3.5,-,N/A,,Heavy Drizzle,230,2012-10-05 18:48:00
8:55 PM,55.4,53.6,94,29.86,3.7,WSW,4.6,-,N/A,Rain,Rain Showers,250,2012-10-05 18:55:00
8:58 PM,55.4,53.6,94,29.86,3.1,West,4.6,-,N/A,Rain,Rain Showers,270,2012-10-05 18:58:00
9:02 PM,55.4,55.4,100,29.86,3.1,West,4.6,-,N/A,Rain,Rain Showers,270,2012-10-05 19:02:00
9:06 PM,55.4,55.4,100,29.86,3.1,West,4.6,-,N/A,Rain,Rain,260,2012-10-05 19:06:00
9:09 PM,55.4,55.4,100,29.86,3.1,West,4.6,-,N/A,Rain,Rain,260,2012-10-05 19:09:00
9:14 PM,55.4,53.6,94,29.86,3.1,WNW,5.8,-,N/A,Rain,Light Rain,290,2012-10-05 19:14:00
9:15 PM,55.4,53.6,94,29.86,3.7,NW,6.9,-,N/A,Rain,Light Rain,310,2012-10-05 19:15:00
9:25 PM,55.4,53.6,94,29.86,3.7,NW,6.9,-,N/A,Rain,Rain Showers,310,2012-10-05 19:25:00
9:33 PM,53.6,53.6,100,29.86,3.7,WNW,8.1,-,N/A,Rain,Rain Showers,300,2012-10-05 19:33:00
9:45 PM,53.6,51.8,94,29.86,4.3,WNW,9.2,-,N/A,Rain,Light Rain,290,2012-10-05 19:45:00
9:55 PM,53.6,51.8,94,29.86,5.6,WNW,8.1,-,N/A,Rain,Light Rain,290,2012-10-05 19:55:00
10:25 PM,53.6,51.8,94,29.86,3.7,West,6.9,-,N/A,,Drizzle,270,2012-10-05 20:25:00
10:48 PM,53.6,51.8,94,29.86,6.2,West,5.8,-,N/A,,Light Drizzle,260,2012-10-05 20:48:00
10:55 PM,53.6,51.8,94,29.86,6.2,WSW,4.6,-,N/A,,Light Drizzle,250,2012-10-05 20:55:00
10:57 PM,53.6,51.8,94,29.86,6.2,WSW,4.6,-,N/A,,Heavy Drizzle,250,2012-10-05 20:57:00
11:00 PM,53,52,95,29.88,5,WSW,4.5,,,Rain,Drizzle,240,2012-10-05 21:00:00
11:12 PM,53.6,51.8,94,29.86,5.0,SW,4.6,-,N/A,,Drizzle,230,2012-10-05 21:12:00
11:14 PM,53.6,51.8,94,29.86,5.0,SW,4.6,-,N/A,,Light Drizzle,220,2012-10-05 21:14:00
11:21 PM,53.6,51.8,94,29.86,5.6,SSW,4.6,-,N/A,,Light Drizzle,210,2012-10-05 21:21:00
11:25 PM,53.6,51.8,94,29.86,6.2,SSW,4.6,-,N/A,,Overcast,210,2012-10-05 21:25:00
11:39 PM,53.6,51.8,94,29.86,6.2,SSW,3.5,-,N/A,,Overcast,210,2012-10-05 21:39:00
11:55 PM,53.6,51.8,94,29.86,6.2,SSW,3.5,-,N/A,,Overcast,210,2012-10-05 21:55:00